Weather History for Blytheville Muni Airport, AR

Change the Weather History Date:

Friday, October 28, 2011

  Actual Average Record
Temperature  
Mean Temperature 50 °F -  
Max Temperature 57 °F 69 °F 85 °F (1940)
Min Temperature 42 °F 45 °F 28 °F (1952)
Degree Days  
Heating Degree Days 15    
Moisture  
Dew Point 41 °F    
Average Humidity 75    
Maximum Humidity 93    
Minimum Humidity 44    
Precipitation  
Precipitation 0.31 in - - ()
Sea Level Pressure  
Sea Level Pressure 30.14 in    
Wind  
Wind Speed 8 mph (NNE)    
Max Wind Speed 13 mph    
Max Gust Speed 21 mph    
Visibility 9 miles    
Events Rain    
Averages and records for this station are not official NWS values.
T = Trace of Precipitation, MM = Missing Value Source: NWS Daily Summary

Daily Weather History Graph

Daily Weather History Graph

Search for Another Location

Airport:

Trip Planner

Search our weather history database for the weather conditions in past years. The results will help you decide how hot, cold, wet, or windy it might be!

Date:

Astronomy

Oct. 28, 2011 Rise Set
Actual Time 7:17 AM CDT 6:08 PM CDT
Civil Twilight 6:51 AM CDT 6:34 PM CDT
Nautical Twilight 6:21 AM CDT 7:04 PM CDT
Astronomical Twilight 5:51 AM CDT 7:34 PM CDT
Moon 9:27 AM CDT (10/28) 7:36 PM CDT (10/28)
Length of Visible Light 11h 42m
Length of Day
10h 50m
Waxing Crescent, 5% of the Moon is Illuminated
Oct 28
Waxing Crescent
Nov 2
First Quarter
Nov 10
Full
Nov 18
Last Quarter
Nov 25
New

Hourly Weather History & Observations

Time (CDT) Temp. Windchill Dew Point Humidity Pressure Visibility Wind Dir Wind Speed Gust Speed Precip Events Conditions
12:53 AM 48.9 °F - 45.0 °F 86% 30.08 in 10.0 mi NNE 9.2 mph - N/A   Overcast
1:53 AM 50.0 °F - 43.0 °F 77% 30.09 in 10.0 mi NNE 6.9 mph - N/A   Overcast
3:53 AM 48.0 °F - 44.1 °F 86% 30.10 in 9.0 mi NNE 9.2 mph - 0.03 in Rain Light Rain
4:53 AM 46.9 °F - 44.1 °F 90% 30.13 in 5.0 mi North 6.9 mph - 0.07 in Rain Rain
5:53 AM 46.0 °F 41.4 °F 44.1 °F 93% 30.11 in 8.0 mi NNE 9.2 mph - 0.13 in Rain Light Rain
6:53 AM 46.0 °F 41.4 °F 43.0 °F 89% 30.13 in 6.0 mi NNE 9.2 mph - 0.03 in Rain Rain
7:53 AM 46.0 °F 41.9 °F 43.0 °F 89% 30.17 in 6.0 mi NNE 8.1 mph - 0.05 in Rain Light Rain
8:53 AM 46.0 °F 43.9 °F 41.0 °F 83% 30.18 in 10.0 mi NE 4.6 mph - 0.00 in Rain Light Rain
9:53 AM 48.0 °F - 39.9 °F 74% 30.18 in 10.0 mi NE 8.1 mph - 0.00 in   Mostly Cloudy
10:53 AM 52.0 °F - 42.1 °F 69% 30.18 in 10.0 mi NE 8.1 mph - N/A   Scattered Clouds
12:53 PM 53.1 °F - 41.0 °F 64% 30.15 in 10.0 mi North 12.7 mph - N/A   Mostly Cloudy
2:53 PM 57.0 °F - 37.0 °F 47% 30.13 in 10.0 mi North 12.7 mph - N/A   Partly Cloudy
3:53 PM 57.0 °F - 35.1 °F 44% 30.11 in 10.0 mi NNE 12.7 mph 20.7 mph N/A   Clear
4:53 PM 55.9 °F - 36.0 °F 47% 30.12 in 10.0 mi NNE 6.9 mph - N/A   Partly Cloudy
5:53 PM 52.0 °F - 37.9 °F 59% 30.14 in 10.0 mi NNE 6.9 mph - N/A   Clear
6:53 PM 46.0 °F 43.9 °F 39.0 °F 76% 30.17 in 10.0 mi NNW 4.6 mph - N/A   Scattered Clouds
8:53 PM 43.0 °F - 39.0 °F 86% 30.18 in 10.0 mi Calm Calm - N/A   Clear
9:53 PM 43.0 °F 41.3 °F 39.0 °F 86% 30.19 in 10.0 mi West 3.5 mph - N/A   Clear
10:53 PM 42.1 °F 39.2 °F 37.9 °F 85% 30.19 in 10.0 mi WNW 4.6 mph - N/A   Clear